{"data":{"norad_id":55596,"epoch":"2026-05-25T02:56:30.931008Z","epoch_age_seconds":71189,"freshness":"FRESH","line1":"1 55596U 23020AD  26145.12258022  .00000039  00000+0  10930-4 0  9995","line2":"2 55596  43.0036 293.4269 0001183 272.7501  87.3215 15.27574733180605","mean_motion":15.27574733,"eccentricity":0.0001183,"inclination_deg":43.0036,"raan_deg":293.4269,"arg_perigee_deg":272.7501,"mean_anomaly_deg":87.3215,"bstar":1.093e-5,"rev_number":18060,"period_min":94.267073740608,"perigee_km":482.25318719685,"apogee_km":483.87654755867,"semimajor_km":6861.2018673778,"source":"CELESTRAK","updated_at":"2026-05-25T13:38:17.840135Z"}}